This is the latest recevied weather packets stored in our database for station/object WA1RYQ. If no packets are shown the sender has not sent any weather packets the latest 10 day(s).
| Time | Temp. | Humidity | Pressure | Rain* | Wind** | Luminosity | Snow |
|---|---|---|---|---|---|---|---|
| 1777176950 | 22.78° C | 85% | 1011.7 hPa | 0 mm | - | 0 W/m² | - |
| 1777176606 | 22.78° C | 85% | 1011.6 hPa | 0 mm | - | 0 W/m² | - |
| 1777172460 | 23.33° C | 85% | 1011.7 hPa | 0 mm | - | 0 W/m² | - |
| 1777172116 | 23.33° C | 85% | 1011.6 hPa | 0 mm | - | 0 W/m² | - |
| 1777170029 | 23.33° C | 84% | 1011.6 hPa | 0 mm | - | 0 W/m² | - |
| 1777169745 | 23.33° C | 84% | 1011.5 hPa | 0 mm | - | 0 W/m² | - |
| 1777169458 | 23.33° C | 83% | 1011.5 hPa | 0 mm | - | 0 W/m² | - |
| 1777165846 | 23.89° C | 82% | 1011.1 hPa | 0 mm | - | 0 W/m² | - |
| 1777164946 | 23.89° C | 81% | 1011 hPa | 0 mm | - | 0 W/m² | - |
| 1777164344 | 23.89° C | 81% | 1010.9 hPa | 0 mm | - | 0 W/m² | - |
| 1777164059 | 23.89° C | 81% | 1010.9 hPa | 0 mm | - | 0 W/m² | - |
| 1777163446 | 23.89° C | 80% | 1010.8 hPa | 0 mm | - | 0 W/m² | - |
| 1777162820 | 23.89° C | 80% | 1010.5 hPa | 0 mm | - | 0 W/m² | - |
| 1777161648 | 23.89° C | 79% | 1010 hPa | 0 mm | - | 0 W/m² | - |
| 1777161012 | 23.89° C | 79% | 1009.9 hPa | 0 mm | - | 0 W/m² | - |
| 1777159208 | 23.89° C | 80% | 1010.1 hPa | 0 mm | - | 19 W/m² | - |
| 1777158306 | 24.44° C | 77% | 1010.2 hPa | 0 mm | - | 30 W/m² | - |
| 1777157458 | 25° C | 73% | 1010 hPa | 0 mm | - | 40 W/m² | - |
| 1777155954 | 25° C | 77% | 1008.8 hPa | 0 mm | - | 49 W/m² | - |
| 1777154729 | 25.56° C | 77% | 1010.2 hPa | 0 mm | - | 47 W/m² | - |
| 1777154158 | 26.11° C | 75% | 1010.5 hPa | 0 mm | - | 47 W/m² | - |
| 1777153559 | 26.11° C | 76% | 1010.5 hPa | 0 mm | - | 49 W/m² | - |
| 1777152328 | 26.11° C | 74% | 1011 hPa | 0 mm | - | 487 W/m² | - |
| 1777148720 | 26.67° C | 71% | 1011.7 hPa | 0 mm | - | 622 W/m² | - |
| 1777147545 | 27.22° C | 72% | 1011.9 hPa | 0 mm | - | 596 W/m² | - |
* Rain latest hour (hover to see other rain measurements)
** Current wind speed in m/s (hover to see current wind gust speed)